When you browse on this site, cookies collect data to enhance your experience and personalize the content and advertising you see.
Visit our Privacy Policy to learn more. By continuing to use the site, you agree to this use of cookies and data.
  • In France
  • List of Countries
  • For 7 days
  • Water Temperature
  • Satellite Maps
  • Weather Map
  • Weather Widgets
  • user-avatar
    Login

    Hourly Weather Andora

    Today, 19 January, Saturday

    Time Temperature Precipitation Wind Pressure Humidity
    00:00 -5°C° 0 mm 0 mps 618 mmHg 71%
    01:00 -5°C° 0 mm 0 mps 618 mmHg 71%
    02:00 -6°C° 0 mm 1 mps 617 mmHg 71%
    03:00 -6°C° 0 mm 1 mps 617 mmHg 71%
    04:00 -6°C° 0 mm 1 mps 617 mmHg 71%
    05:00 -6°C° 0 mm 1 mps 617 mmHg 71%
    06:00 -6°C° 0 mm 1 mps 617 mmHg 71%
    07:00 -4°C° 0 mm 1 mps 618 mmHg 67%
    08:00 -3°C° 0 mm 0 mps 618 mmHg 64%
    09:00 -2°C° 0 mm 0 mps 619 mmHg 60%
    10:00 -1°C° 0 mm 0 mps 619 mmHg 57%
    11:00 +2°C° 0 mm 1 mps 620 mmHg 54%
    12:00 +3°C° 0 mm 1 mps 620 mmHg 51%
    13:00 +3°C° 0 mm 1 mps 619 mmHg 53%
    14:00 +3°C° 0 mm 1 mps 619 mmHg 54%
    15:00 +2°C° 0 mm 1 mps 618 mmHg 56%
    16:00 0°C° 0 mm 1 mps 617 mmHg 64%
    17:00 -1°C° 0 mm 1 mps 617 mmHg 72%
    18:00 -3°C° 0 mm 1 mps 616 mmHg 80%
    19:00 -3°C° 0 mm 1 mps 616 mmHg 79%
    20:00 -3°C° 0 mm 1 mps 616 mmHg 79%
    21:00 -3°C° 0 mm 1 mps 616 mmHg 78%
    22:00 -3°C° 0 mm 1 mps 616 mmHg 78%
    23:00 -3°C° 0 mm 1 mps 616 mmHg 78%

    Tomorrow, 20 January, Sunday

    Time Temperature Precipitation Wind Pressure Humidity
    00:00 -2°C° 0 mm 1 mps 616 mmHg 78%
    01:00 -2°C° 0 mm 1 mps 616 mmHg 78%
    02:00 -2°C° 0 mm 1 mps 616 mmHg 77%
    03:00 -3°C° 0 mm 0 mps 615 mmHg 77%
    04:00 -2°C° 0 mm 1 mps 615 mmHg 75%
    05:00 -2°C° 0 mm 1 mps 616 mmHg 73%
    06:00 -2°C° 0 mm 1 mps 616 mmHg 72%
    07:00 -1°C° 0 mm 1 mps 616 mmHg 68%
    08:00 -1°C° 0 mm 1 mps 617 mmHg 64%
    09:00 0°C° 0 mm 1 mps 617 mmHg 60%
    10:00 +1°C° 0 mm 1 mps 618 mmHg 57%
    11:00 +2°C° 0 mm 1 mps 618 mmHg 54%
    12:00 +4°C° 0 mm 1 mps 619 mmHg 51%
    13:00 +3°C° 0 mm 1 mps 619 mmHg 55%
    14:00 +3°C° 0 mm 1 mps 618 mmHg 60%
    15:00 +1°C° 0 mm 2 mps 618 mmHg 64%
    16:00 +1°C° 0.1 mm 1 mps 618 mmHg 72%
    17:00 -1°C° 0.1 mm 1 mps 618 mmHg 79%
    18:00 -2°C° 0.1 mm 1 mps 618 mmHg 87%
    19:00 -2°C° 0 mm 1 mps 618 mmHg 86%
    20:00 -2°C° 0 mm 1 mps 618 mmHg 85%
    21:00 -3°C° 0 mm 1 mps 618 mmHg 85%
    22:00 -2°C° 0.3 mm 1 mps 619 mmHg 85%
    23:00 -2°C° 0.3 mm 1 mps 619 mmHg 85%

    Day after tomorrow, 21 January, Monday

    Time Temperature Precipitation Wind Pressure Humidity
    00:00 -2°C° 0.3 mm 1 mps 619 mmHg 85%
    01:00 -4°C° 0.1 mm 2 mps 619 mmHg 86%
    02:00 -4°C° 0.1 mm 2 mps 619 mmHg 87%
    03:00 -5°C° 0.1 mm 2 mps 619 mmHg 88%
    04:00 -5°C° 0.1 mm 2 mps 619 mmHg 88%
    05:00 -5°C° 0.1 mm 2 mps 619 mmHg 87%
    06:00 -5°C° 0.1 mm 2 mps 619 mmHg 87%
    07:00 -4°C° 0.2 mm 2 mps 620 mmHg 83%
    08:00 -4°C° 0.2 mm 2 mps 620 mmHg 80%
    09:00 -3°C° 0.2 mm 2 mps 621 mmHg 77%
    10:00 -3°C° 0.1 mm 2 mps 621 mmHg 72%
    11:00 -2°C° 0.1 mm 2 mps 622 mmHg 67%
    12:00 -1°C° 0.1 mm 3 mps 622 mmHg 63%
    13:00 -1°C° 0.1 mm 3 mps 622 mmHg 64%
    14:00 -2°C° 0.1 mm 3 mps 622 mmHg 65%
    15:00 -2°C° 0.1 mm 3 mps 621 mmHg 67%
    16:00 -4°C° 0 mm 3 mps 621 mmHg 73%
    17:00 -5°C° 0 mm 2 mps 621 mmHg 79%
    18:00 -6°C° 0 mm 2 mps 620 mmHg 85%
    19:00 -6°C° 0 mm 2 mps 620 mmHg 86%
    20:00 -7°C° 0 mm 2 mps 620 mmHg 86%
    21:00 -7°C° 0 mm 2 mps 620 mmHg 87%
    22:00 -8°C° 0 mm 2 mps 620 mmHg 84%
    23:00 -8°C° 0 mm 2 mps 620 mmHg 81%

    22 January, Tuesday

    Time Temperature Precipitation Wind Pressure Humidity
    00:00 -9°C° 0 mm 2 mps 620 mmHg 78%
    01:00 -9°C° 0 mm 2 mps 619 mmHg 72%
    02:00 -9°C° 0 mm 2 mps 619 mmHg 65%
    03:00 -9°C° 0 mm 2 mps 618 mmHg 59%
    04:00 -9°C° 0 mm 2 mps 618 mmHg 56%
    05:00 -9°C° 0 mm 2 mps 618 mmHg 53%
    06:00 -9°C° 0 mm 2 mps 617 mmHg 50%
    07:00 -6°C° 0 mm 1 mps 618 mmHg 48%
    08:00 -4°C° 0 mm 1 mps 618 mmHg 45%
    09:00 -2°C° 0 mm 1 mps 618 mmHg 43%
    10:00 -1°C° 0.2 mm 1 mps 617 mmHg 48%
    11:00 -1°C° 0.2 mm 1 mps 617 mmHg 53%
    12:00 -3°C° 0.2 mm 2 mps 616 mmHg 59%
    13:00 -3°C° 0.6 mm 2 mps 616 mmHg 64%
    14:00 -3°C° 0.6 mm 2 mps 615 mmHg 70%
    15:00 -3°C° 0.6 mm 2 mps 615 mmHg 76%
    16:00 -4°C° 0.3 mm 2 mps 614 mmHg 79%
    17:00 -4°C° 0.3 mm 2 mps 613 mmHg 82%
    18:00 -3°C° 0.3 mm 1 mps 612 mmHg 86%
    19:00 -3°C° 0.4 mm 1 mps 612 mmHg 88%
    20:00 -3°C° 0.4 mm 1 mps 611 mmHg 91%
    21:00 -4°C° 0.4 mm 1 mps 611 mmHg 93%
    22:00 -6°C° 1 mm 2 mps 610 mmHg 93%
    23:00 -6°C° 1 mm 2 mps 610 mmHg 93%

    23 January, Wednesday

    Time Temperature Precipitation Wind Pressure Humidity
    00:00 -7°C° 1 mm 3 mps 609 mmHg 94%
    01:00 -8°C° 1 mm 3 mps 609 mmHg 93%
    02:00 -9°C° 1 mm 3 mps 608 mmHg 92%
    03:00 -10°C° 1 mm 3 mps 607 mmHg 91%
    04:00 -10°C° 0.7 mm 3 mps 607 mmHg 90%
    05:00 -12°C° 0.7 mm 4 mps 607 mmHg 89%
    06:00 -13°C° 0.7 mm 5 mps 606 mmHg 88%
    07:00 -14°C° 0.3 mm 5 mps 606 mmHg 86%
    08:00 -15°C° 0.3 mm 6 mps 607 mmHg 84%
    09:00 -15°C° 0.3 mm 6 mps 607 mmHg 81%
    10:00 -14°C° 0.1 mm 7 mps 607 mmHg 79%
    11:00 -14°C° 0.1 mm 7 mps 607 mmHg 76%
    12:00 -13°C° 0.1 mm 7 mps 607 mmHg 74%
    13:00 -13°C° 0.1 mm 8 mps 607 mmHg 75%
    14:00 -13°C° 0.1 mm 8 mps 607 mmHg 76%
    15:00 -13°C° 0.1 mm 8 mps 606 mmHg 78%
    16:00 -15°C° 0.1 mm 8 mps 606 mmHg 79%
    17:00 -15°C° 0.1 mm 7 mps 606 mmHg 81%
    18:00 -15°C° 0.1 mm 7 mps 606 mmHg 83%
    19:00 -15°C° 0 mm 7 mps 607 mmHg 83%
    20:00 -15°C° 0 mm 6 mps 607 mmHg 84%
    21:00 -15°C° 0 mm 6 mps 608 mmHg 84%
    22:00 -16°C° 0 mm 6 mps 607 mmHg 84%
    23:00 -16°C° 0 mm 6 mps 607 mmHg 84%

    24 January, Thursday

    Time Temperature Precipitation Wind Pressure Humidity
    00:00 -15°C° 0 mm 5 mps 607 mmHg 83%
    01:00 -17°C° 0 mm 5 mps 607 mmHg 83%
    02:00 -17°C° 0 mm 5 mps 606 mmHg 83%
    03:00 -18°C° 0 mm 5 mps 606 mmHg 83%
    04:00 -17°C° 0 mm 5 mps 606 mmHg 84%
    05:00 -17°C° 0 mm 5 mps 606 mmHg 84%
    06:00 -17°C° 0 mm 5 mps 607 mmHg 84%
    07:00 -15°C° 0 mm 5 mps 607 mmHg 82%
    08:00 -14°C° 0 mm 5 mps 608 mmHg 79%
    09:00 -13°C° 0 mm 5 mps 609 mmHg 77%
    10:00 -12°C° 0 mm 5 mps 609 mmHg 75%
    11:00 -11°C° 0 mm 5 mps 610 mmHg 73%
    12:00 -10°C° 0 mm 5 mps 610 mmHg 71%
    13:00 -10°C° 0 mm 5 mps 610 mmHg 73%
    14:00 -11°C° 0 mm 5 mps 610 mmHg 75%
    15:00 -11°C° 0 mm 5 mps 610 mmHg 76%
    16:00 -12°C° 0 mm 5 mps 610 mmHg 79%
    17:00 -13°C° 0 mm 5 mps 610 mmHg 82%
    18:00 -14°C° 0 mm 4 mps 610 mmHg 84%
    19:00 -14°C° 0 mm 4 mps 611 mmHg 84%
    20:00 -14°C° 0 mm 4 mps 612 mmHg 84%
    21:00 -14°C° 0 mm 4 mps 612 mmHg 84%
    22:00 -15°C° 0 mm 4 mps 612 mmHg 82%
    23:00 -15°C° 0 mm 4 mps 612 mmHg 80%
    Show more